User: anonymous   Login
Location: Unspecified
(0.0000°N, 0.0000°E)
Time: 15:52:38
(UTC+00:00)
Language:

Telstar 2 - Orbit

View from above orbital plane
View from above orbital plane
View from above satellite
View from above satellite

Ground track
Ground track

The orbit data is extracted from the following two-line orbital elements,

1   573U 63013A   19015.89184574 -.00000030 +00000-0 +25520-3 0  9991
2   573 042.7651 323.3655 4009572 092.7186 344.9752 06.39260253412860
Epoch (UTC): 15 January 2019 21:24:15
Eccentricity: 0.4009572
inclination: 42.7651°
perigee height: 968 km
apogee height: 10802 km
right ascension of ascending node: 323.3655°
argument of perigee: 92.7186°
revolutions per day: 6.39260253
mean anomaly at epoch: 344.9752°
orbit number at epoch: 41286

The dashed part of the orbit path shows where the satellite is in the earth's shadow,  

DLR